Location: The Rolnick Observatory
(41.1711°N, 73.3275°W)
Time: 19:36:23
(UTC-05:00)

N. Korean satellite - Visible Passes

Search period start: 16 February 2019 00:00
Search period end: 26 February 2019 00:00
Orbit: 457 x 510 km, 97.2° (Epoch: 16 February)

Date Brightness Start Highest point End Pass type
(mag) Time Alt. Az. Time Alt. Az. Time Alt. Az.
16 Feb 6.9 05:59:55 10° NNE 06:03:23 67° E 06:06:48 10° S visible
16 Feb 9.8 18:09:26 10° SW 18:12:12 20° W 18:14:59 10° NW visible
17 Feb 8.7 05:35:30 10° NNE 05:38:36 29° E 05:41:38 10° SSE visible
18 Feb 9.9 05:11:41 10° ENE 05:13:42 15° E 05:15:42 10° SE visible
19 Feb 10.4 18:30:14 10° WSW 18:31:35 12° W 18:32:56 10° WNW visible
20 Feb 7.3 05:54:26 10° NNE 05:57:50 55° E 06:01:13 10° S visible
20 Feb 9.6 18:03:43 10° SSW 18:06:40 23° W 18:09:38 10° NW visible
21 Feb 9.0 05:30:06 10° NE 05:33:01 25° E 05:35:55 10° SSE visible
22 Feb 10.1 05:06:34 10° ENE 05:08:06 12° E 05:09:38 10° ESE visible
23 Feb 10.3 18:24:10 10° WSW 18:25:59 13° W 18:27:49 10° WNW visible
24 Feb 7.7 05:48:55 10° NNE 05:52:15 46° E 05:55:33 10° S visible
25 Feb 9.4 05:24:40 10° NE 05:27:24 22° E 05:30:07 10° SSE visible
